星链-36303(STARLINK-36303)

导读

STARLINK-36303是美国太空探索技术公司SpaceX星链互联网卫星星座的成员,由美国于2026年2月20日发射。作为星链低轨互联网星座扩容任务的一部分,该卫星将入轨运行,为全球范围内用户提供高速低延迟的卫星互联网接入服务,进一步完善星链星座的全球覆盖能力。

基本信息
目录编号:
67852
目录名称:
STARLINK-36276
国际标识:
2026-034C
轨道中心:
EARTH
卫星名称:
星链-36303
卫星全名:
星链-36303(STARLINK-36303)
卫星状态:
在轨 (已飞行113 天)
发射日期:
2026-02-20 UTC
国别 :
美国 (US)
星等 :
--
轨道信息
数据来源 国际轨道数据
星历时间: 2026-06-12T14:33:29+0800
22小时前
查看轨道信息
半长轴: 6853.331km
偏心率: 0.0001259
轨道倾角: 53.158°
近地点辐角 77.874°
升交点赤经 125.171°
平近点角 282.241°
近地点: 474.331km
远地点: 476.057km
周期: 94.105分钟
每日圈数: 15.302071
详细信息
固有亮度:
5
最大亮度:
2.5
卫星平台:
Starlink V1.0
覆盖范围:
全球
运营商:
太空探索技术公司
运营商所在国:
美国
制造商(研发单位):
太空探索技术公司
制造商所在国:
美国
使用方式:
暂无
卫星简介
Starlink 计划是 SpaceX 推出的全球卫星互联网项目,通过发射低轨道卫星,为全球尤其是偏远地区提供高速、低延迟的互联网服务。自 2019 年起,Starlink 已部署数千颗卫星,旨在缩小全球数字鸿沟,推动互联网普及。该项目还为军事、航空等行业提供通信支持,带来广泛经济效益。
2D轨道图
3D轨道图
轨道高度分析图
轨道倾角分析图
轨道综合分析图
查看轨道综合分析图